Вернуться в каталог

BREEZE-M DEB

АктивенHEO
NORAD 38569·DEBRIS·🇷🇺 Russia

Запущен Mar 14, 2008 с Baikonur Cosmodrome

Loading…

Ближайшие Пролёты (ближайшие 24 часа)

TLE

СвежийSource: Space-Track

Эпоха: Sep 6, 2026, 17:46 UTC

1 38569U 08011Q   26249.74054671  .00000053  00000-0  00000-0 0  9996
2 38569  48.9105 147.7050 6302961  89.5774 337.3245  3.03413486 24668

Отслеживайте BREEZE-M DEB в реальном времени с AllMySat

Download on the App Store